ANIK F2

Last updated on Tue Sep 16 2025 00:02:45 GMT+0000 (Coordinated Universal Time)

1 28378U 04027A 25258.56256252 -.00000066 00000+0 00000+0 0 9997 2 28378 2.5742 83.1446 0004004 47.9041 315.1491 1.00271606 38513
UTC large
Height (km)
Speed (km/s)
/
Latitude / Longitude
Inclination (degrees)
Orbital Period (minutes)
Azimuth
Elevation
Range (km)
Doppler Factor

Next 0 passes for location: London (51.5072 / 0.1276)

Sorry there are no passes over London.